Weather History for Clarksville, TN

Change the Weather History Date:

Monday, February 18, 2013

  Actual Average Record
Temperature  
Mean Temperature 50 °F -  
Max Temperature 65 °F - 76 °F (1951)
Min Temperature 34 °F - 4 °F (1958)
Degree Days  
Heating Degree Days 15    
Month to date heating degree days 436  
Since 1 July heating degree days 2663  
Cooling Degree Days 0    
Month to date cooling degree days 0  
Moisture  
Dew Point 34 °F    
Average Humidity 62    
Maximum Humidity 93    
Minimum Humidity 30    
Precipitation  
Precipitation 0.44 in - 1.96 in (1976)
Month to date precipitation 1.10  
Sea Level Pressure  
Sea Level Pressure 29.96 in    
Wind  
Wind Speed 15 mph (South)    
Max Wind Speed 35 mph    
Max Gust Speed 48 mph    
Visibility 9 miles    
Events Rain    
T = Trace of Precipitation, MM = Missing Value Source: NWS Daily Summary

Daily Weather History Graph

Daily Weather History Graph

Search for Another Location

Airport:

Trip Planner

Search our weather history database for the weather conditions in past years. The results will help you decide how hot, cold, wet, or windy it might be!

Date:

Astronomy

Feb. 18, 2013 Rise Set
Actual Time 6:33 AM CST 5:33 PM CST
Civil Twilight 6:07 AM CST 5:59 PM CST
Nautical Twilight 5:37 AM CST 6:30 PM CST
Astronomical Twilight 5:07 AM CST 7:00 PM CST
Moon 11:23 AM CST (2/18) 1:08 AM CST (2/18)
Length of Visible Light 11h 52m
Length of Day
10h 59m
First Quarter, 58% of the Moon is Illuminated
Feb 18
First Quarter
Feb 25
Full
Mar 4
Last Quarter
Mar 11
New
Mar 19
First Quarter

Hourly Weather History & Observations

Time (CST) Temp. Windchill Dew Point Humidity Pressure Visibility Wind Dir Wind Speed Gust Speed Precip Events Conditions
12:52 AM 36.0 °F 29.6 °F 19.0 °F 50% 30.13 in 10.0 mi SSE 8.1 mph - N/A   Clear
1:52 AM 36.0 °F 30.3 °F 19.9 °F 52% 30.12 in 10.0 mi SSE 6.9 mph - N/A   Clear
2:52 AM 36.0 °F 31.1 °F 21.0 °F 55% 30.11 in 10.0 mi SSE 5.8 mph - N/A   Clear
4:52 AM 41.0 °F 34.3 °F 24.1 °F 51% 30.11 in 10.0 mi South 11.5 mph - N/A   Clear
5:52 AM 41.0 °F 34.3 °F 25.0 °F 53% 30.11 in 10.0 mi South 11.5 mph - N/A   Clear
6:52 AM 41.0 °F 35.2 °F 28.0 °F 60% 30.12 in 10.0 mi South 9.2 mph - N/A   Clear
8:52 AM 48.9 °F - 32.0 °F 52% 30.12 in 10.0 mi SSW 12.7 mph 20.7 mph N/A   Clear
9:52 AM 53.1 °F - 30.9 °F 43% 30.10 in 10.0 mi SSW 13.8 mph 29.9 mph N/A   Clear
10:52 AM 55.9 °F - 32.0 °F 40% 30.07 in 10.0 mi SSW 20.7 mph 31.1 mph N/A   Clear
11:52 AM 60.1 °F - 30.0 °F 32% 30.02 in 10.0 mi SSW 20.7 mph 33.4 mph N/A   Clear
12:52 PM 63.0 °F - 30.0 °F 29% 29.97 in 10.0 mi SSW 26.5 mph 35.7 mph N/A   Clear
1:52 PM 64.0 °F - 32.0 °F 30% 29.94 in 10.0 mi South 13.8 mph 34.5 mph N/A   Mostly Cloudy
2:52 PM 63.0 °F - 32.0 °F 31% 29.90 in 10.0 mi South 25.3 mph 38.0 mph N/A   Mostly Cloudy
3:52 PM 61.0 °F - 34.0 °F 36% 29.88 in 10.0 mi South 24.2 mph 36.8 mph N/A   Mostly Cloudy
4:52 PM 59.0 °F - 34.0 °F 39% 29.86 in 10.0 mi South 18.4 mph 28.8 mph 0.00 in   Overcast
5:52 PM 53.1 °F - 42.1 °F 66% 29.84 in 10.0 mi South 15.0 mph 32.2 mph 0.04 in   Overcast
7:52 PM 51.1 °F - 43.0 °F 74% 29.82 in 7.0 mi South 16.1 mph 21.9 mph 0.09 in Rain Light Rain
8:52 PM 50.0 °F - 44.1 °F 80% 29.80 in 6.0 mi South 15.0 mph 27.6 mph 0.05 in Rain Rain
9:52 PM 48.9 °F - 45.0 °F 86% 29.81 in 4.0 mi South 16.1 mph 26.5 mph 0.08 in Rain Rain
10:03 PM 48.2 °F - 44.6 °F 87% 29.88 in 2.5 mi West 19.6 mph 28.8 mph 0.09 in Rain Heavy Rain
10:18 PM 46.4 °F 41.1 °F 44.6 °F 93% 29.88 in 4.0 mi SW 11.5 mph 20.7 mph 0.13 in Rain Light Rain
10:52 PM 46.9 °F - 45.0 °F 93% 29.81 in 6.0 mi SSE 13.8 mph - 0.18 in Rain Rain
11:01 PM 48.2 °F - 44.6 °F 87% 29.82 in 10.0 mi South 13.8 mph - 0.00 in Rain Light Rain
11:52 PM 48.9 °F - 46.0 °F 90% 29.83 in 10.0 mi South 11.5 mph - 0.00 in   Overcast